Weather History for Louisville Bowman, KY

Change the Weather History Date:

Tuesday, April 1, 2014

  Actual Average Record
Temperature  
Mean Temperature 69 °F 52 °F  
Max Temperature 80 °F 62 °F 85 °F (1963)
Min Temperature 57 °F 42 °F 21 °F (1997)
Degree Days  
Heating Degree Days 0 13  
Month to date heating degree days 0 13  
Since 1 July heating degree days 4486 3936  
Cooling Degree Days 4 1  
Month to date cooling degree days 4 1  
Year to date cooling degree days 4 5  
Growing Degree Days 19 (Base 50)    
Moisture  
Dew Point 37 °F    
Average Humidity 47    
Maximum Humidity 75    
Minimum Humidity 19    
Precipitation  
Precipitation 0.13 in 0.12 in 4.08 in (1970)
Month to date precipitation 0.13 0.12  
Year to date precipitation 8.08 10.84  
Sea Level Pressure  
Sea Level Pressure 29.99 in    
Wind  
Wind Speed 8 mph (WSW)    
Max Wind Speed 21 mph    
Max Gust Speed 28 mph    
Visibility 10 miles    
Events Rain , Thunderstorm    
T = Trace of Precipitation, MM = Missing Value Source: NWS Daily Summary

Daily Weather History Graph

Daily Weather History Graph

Search for Another Location

Airport:

Trip Planner

Search our weather history database for the weather conditions in past years. The results will help you decide how hot, cold, wet, or windy it might be!

Date:

Astronomy

Apr. 01, 2014 Rise Set
Actual Time 7:27 AM EDT 8:05 PM EDT
Civil Twilight 7:01 AM EDT 8:32 PM EDT
Nautical Twilight 6:29 AM EDT 9:03 PM EDT
Astronomical Twilight 5:57 AM EDT 9:36 PM EDT
Moon 8:31 AM EDT (4/1) 10:25 PM EDT (4/1)
Length of Visible Light 13h 31m
Length of Day
12h 38m
Waxing Crescent, 4% of the Moon is Illuminated
Apr 1
Waxing Crescent
Apr 7
First Quarter
Apr 15
Full
Apr 22
Last Quarter
Apr 29
New

Hourly Weather History & Observations

Time (EDT) Temp. Dew Point Humidity Pressure Visibility Wind Dir Wind Speed Gust Speed Precip Events Conditions
12:53 AM 64.0 °F 28.9 °F 27% 29.96 in 10.0 mi SSE 5.8 mph - N/A   Overcast
1:53 AM 62.1 °F 34.0 °F 35% 29.97 in 10.0 mi Calm Calm - 0.00 in Rain Light Rain
2:53 AM 63.0 °F 32.0 °F 31% 29.96 in 10.0 mi Variable 5.8 mph - 0.00 in   Overcast
3:53 AM 64.0 °F 32.0 °F 30% 29.96 in 10.0 mi South 4.6 mph - 0.00 in   Overcast
4:53 AM 64.0 °F 33.1 °F 31% 29.95 in 10.0 mi Calm Calm - 0.00 in   Overcast
5:53 AM 63.0 °F 34.0 °F 34% 29.94 in 10.0 mi South 4.6 mph - N/A   Mostly Cloudy
6:53 AM 62.1 °F 33.1 °F 34% 29.95 in 10.0 mi South 4.6 mph - N/A   Clear
7:53 AM 61.0 °F 34.0 °F 36% 29.96 in 10.0 mi South 4.6 mph - N/A   Clear
8:53 AM 64.0 °F 37.9 °F 38% 29.97 in 10.0 mi South 4.6 mph - N/A   Clear
9:53 AM 66.9 °F 41.0 °F 39% 29.99 in 10.0 mi SW 9.2 mph 19.6 mph N/A   Clear
10:53 AM 70.0 °F 43.0 °F 38% 30.00 in 10.0 mi WSW 12.7 mph 20.7 mph N/A   Clear
11:53 AM 73.0 °F 39.0 °F 29% 30.00 in 10.0 mi WSW 15.0 mph 19.6 mph N/A   Clear
12:53 PM 75.9 °F 35.1 °F 23% 29.99 in 10.0 mi WSW 15.0 mph 23.0 mph N/A   Clear
1:53 PM 78.1 °F 35.1 °F 21% 29.99 in 10.0 mi WSW 15.0 mph 24.2 mph N/A   Clear
2:53 PM 79.0 °F 36.0 °F 21% 29.99 in 10.0 mi WSW 13.8 mph 23.0 mph N/A   Clear
3:53 PM 79.0 °F 33.1 °F 19% 29.98 in 10.0 mi West 13.8 mph 24.2 mph N/A   Clear
4:53 PM 79.0 °F 34.0 °F 20% 29.97 in 10.0 mi WSW 15.0 mph 25.3 mph N/A   Clear
5:53 PM 78.1 °F 33.1 °F 19% 29.96 in 10.0 mi WSW 13.8 mph 23.0 mph N/A   Clear
6:53 PM 75.9 °F 34.0 °F 22% 29.98 in 10.0 mi West 9.2 mph - N/A   Mostly Cloudy
7:53 PM 73.0 °F 36.0 °F 26% 30.00 in 10.0 mi WNW 9.2 mph - 0.00 in Rain Light Rain
8:10 PM 71.6 °F 39.2 °F 31% 30.04 in 10.0 mi WNW 10.4 mph - 0.00 in Rain , Thunderstorm Light Rain
8:29 PM 66.2 °F 42.8 °F 43% 30.06 in 10.0 mi West 10.4 mph - 0.00 in Rain Light Rain
8:53 PM 64.0 °F 46.9 °F 54% 30.06 in 4.0 mi NW 6.9 mph - 0.05 in Rain Rain
9:53 PM 59.0 °F 51.1 °F 75% 30.03 in 10.0 mi NE 3.5 mph - 0.08 in Rain Light Rain
10:53 PM 59.0 °F 50.0 °F 72% 30.04 in 10.0 mi North 3.5 mph - 0.00 in   Mostly Cloudy
11:53 PM 57.9 °F 43.0 °F 58% 30.04 in 10.0 mi NNE 5.8 mph - N/A   Partly Cloudy